This is the latest recevied weather packets stored in our database for station/object K4AMF. If no packets are shown the sender has not sent any weather packets the latest 10 day(s).
| Time | Temp. | Humidity | Pressure | Rain* | Wind** | Luminosity | Snow |
|---|---|---|---|---|---|---|---|
| 1777653512 | 27.22° C | 67% | 1013.4 hPa | 0 mm | - | 310 W/m² | - |
| 1777653209 | 26.67° C | 67% | 1013.4 hPa | 0 mm | - | 284 W/m² | - |
| 1777652906 | 27.22° C | 67% | 1013 hPa | 0 mm | - | 327 W/m² | - |
| 1777652603 | 27.78° C | 66% | 1013.1 hPa | 0 mm | - | 337 W/m² | - |
| 1777652300 | 27.78° C | 67% | 1013.1 hPa | 0 mm | - | 455 W/m² | - |
| 1777651996 | 27.22° C | 67% | 1013.3 hPa | 0 mm | - | 601 W/m² | - |
| 1777651693 | 27.78° C | 68% | 1013.5 hPa | 0 mm | - | 551 W/m² | - |
| 1777651390 | 27.22° C | 69% | 1013.5 hPa | 0 mm | - | 592 W/m² | - |
| 1777650784 | 26.67° C | 69% | 1013.7 hPa | 0 mm | - | 410 W/m² | - |
| 1777649875 | 27.22° C | 70% | 1013.8 hPa | 0 mm | - | 804 W/m² | - |
| 1777649573 | 26.67° C | 70% | 1013.8 hPa | 0 mm | - | 751 W/m² | - |
| 1777649269 | 26.67° C | 73% | 1013.7 hPa | 0 mm | - | 445 W/m² | - |
| 1777648966 | 26.67° C | 73% | 1013.7 hPa | 0 mm | - | 426 W/m² | - |
| 1777648663 | 26.11° C | 72% | 1013.7 hPa | 0 mm | - | 360 W/m² | - |
| 1777648359 | 25.56° C | 73% | 1013.8 hPa | 0 mm | - | 370 W/m² | - |
| 1777648056 | 25.56° C | 74% | 1013.9 hPa | 0 mm | - | 302 W/m² | - |
| 1777647752 | 25.56° C | 75% | 1013.8 hPa | 0 mm | - | 266 W/m² | - |
| 1777647448 | 25.56° C | 75% | 1013.5 hPa | 0 mm | - | 194 W/m² | - |
| 1777647146 | 25.56° C | 75% | 1013.6 hPa | 0 mm | - | 211 W/m² | - |
| 1777646842 | 25.56° C | 76% | 1013.7 hPa | 0 mm | - | 207 W/m² | - |
| 1777646234 | 26.11° C | 75% | 1013.4 hPa | 0 mm | - | 231 W/m² | - |
| 1777645932 | 25.56° C | 77% | 1013.2 hPa | 0 mm | - | 843 W/m² | - |
| 1777645628 | 25° C | 77% | 1013.3 hPa | 0 mm | - | 233 W/m² | - |
| 1777645324 | 25° C | 77% | 1013.3 hPa | 0 mm | - | 248 W/m² | - |
| 1777645020 | 25° C | 78% | 1013.3 hPa | 0 mm | - | 271 W/m² | - |
* Rain latest hour (hover to see other rain measurements)
** Current wind speed in m/s (hover to see current wind gust speed)